Total_Precipitation_Accumulation
0.23 0.29 0.44 0.38 0.21 0.20 0.33 0.26 0.25 0.14 0.14 0.17 0.17 0.20 0.21 0.18 0.15 0.12 0.11 0.11 0.13 0.14 0.13 0.15 0.16 0.17 0.18 0.20 0.24 0.28 0.29 0.28 0.27 0.27 0.28 0.29 0.30 0.30 0.30 0.30 0.31 0.33 0.37 0.41
0.29 0.28 0.38 0.31 0.15 0.13 0.14 0.12 0.12 0.10 0.14 0.14 0.18 0.22 0.25 0.22 0.15 0.09 0.08 0.07 0.07 0.08 0.09 0.10 0.12 0.16 0.20 0.23 0.30 0.34 0.36 0.31 0.28 0.27 0.26 0.23 0.22 0.22 0.22 0.23 0.24 0.27 0.31 0.33
0.48 0.24 0.28 0.25 0.14 0.13 0.11 0.09 0.09 0.13 0.13 0.13 0.20 0.24 0.22 0.17 0.10 0.07 0.05 0.05 0.05 0.05 0.06 0.08 0.12 0.19 0.27 0.32 0.39 0.40 0.43 0.38 0.33 0.29 0.27 0.24 0.22 0.23 0.25 0.27 0.29 0.31 0.33 0.36
0.59 0.38 0.37 0.24 0.17 0.15 0.12 0.08 0.06 0.08 0.07 0.08 0.13 0.15 0.13 0.10 0.08 0.05 0.04 0.03 0.03 0.04 0.04 0.05 0.10 0.19 0.28 0.34 0.45 0.47 0.46 0.45 0.43 0.43 0.43 0.44 0.43 0.44 0.45 0.44 0.45 0.49 0.53 0.56
0.41 0.32 0.17 0.09 0.10 0.12 0.13 0.10 0.05 0.05 0.04 0.04 0.06 0.12 0.17 0.14 0.10 0.07 0.04 0.02 0.02 0.02 0.03 0.04 0.07 0.13 0.22 0.34 0.48 0.59 0.64 0.62 0.62 0.65 0.69 0.73 0.74 0.73 0.73 0.75 0.75 0.73 0.70 0.65
0.27 0.22 0.10 0.04 0.02 0.03 0.05 0.08 0.02 0.02 0.02 0.02 0.04 0.09 0.16 0.17 0.13 0.11 0.09 0.07 0.05 0.05 0.06 0.09 0.12 0.18 0.30 0.46 0.60 0.70 0.72 0.75 0.78 0.83 0.89 0.86 0.84 0.80 0.72 0.68 0.67 0.66 0.64 0.61
0.21 0.19 0.04 0.01 0.00 0.01 0.05 0.08 0.02 0.01 0.01 0.01 0.02 0.05 0.06 0.11 0.15 0.14 0.15 0.17 0.17 0.18 0.20 0.22 0.25 0.34 0.47 0.58 0.66 0.69 0.69 0.70 0.71 0.69 0.69 0.67 0.65 0.60 0.55 0.49 0.44 0.39 0.36 0.33
0.09 0.13 0.06 0.01 0.01 0.02 0.03 0.02 0.01 0.01 0.01 0.02 0.02 0.02 0.03 0.04 0.08 0.12 0.16 0.22 0.29 0.34 0.37 0.37 0.40 0.46 0.52 0.54 0.54 0.52 0.49 0.47 0.43 0.38 0.33 0.31 0.32 0.31 0.29 0.27 0.23 0.20 0.17 0.15
0.05 0.07 0.03 0.01 0.01 0.02 0.01 0.02 0.01 0.01 0.01 0.02 0.02 0.02 0.02 0.02 0.03 0.05 0.07 0.09 0.14 0.20 0.24 0.25 0.25 0.27 0.29 0.26 0.23 0.19 0.16 0.14 0.13 0.10 0.09 0.08 0.08 0.08 0.10 0.11 0.12 0.11 0.11 0.11
0.04 0.04 0.02 0.02 0.02 0.02 0.02 0.02 0.02 0.02 0.03 0.03 0.03 0.03 0.03 0.02 0.02 0.03 0.03 0.03 0.04 0.06 0.07 0.07 0.08 0.08 0.09 0.07 0.05 0.04 0.03 0.03 0.03 0.03 0.03 0.03 0.04 0.04 0.05 0.07 0.08 0.10 0.10 0.10
0.04 0.03 0.02 0.02 0.02 0.01 0.01 0.01 0.02 0.02 0.02 0.03 0.04 0.04 0.04 0.04 0.03 0.03 0.03 0.03 0.04 0.04 0.04 0.04 0.04 0.05 0.05 0.05 0.04 0.04 0.03 0.03 0.03 0.03 0.04 0.04 0.04 0.04 0.06 0.06 0.08 0.11 0.12 0.12
0.06 0.03 0.02 0.01 0.01 0.01 0.01 0.01 0.01 0.02 0.02 0.02 0.02 0.04 0.03 0.03 0.04 0.04 0.05 0.04 0.04 0.04 0.05 0.06 0.06 0.07 0.07 0.08 0.08 0.07 0.07 0.06 0.07 0.07 0.07 0.07 0.07 0.07 0.09 0.10 0.12 0.14 0.14 0.15
0.03 0.02 0.02 0.01 0.00 0.00 0.01 0.01 0.02 0.01 0.01 0.01 0.01 0.01 0.02 0.03 0.04 0.04 0.05 0.06 0.06 0.06 0.07 0.06 0.06 0.07 0.08 0.10 0.11 0.12 0.13 0.14 0.14 0.13 0.13 0.12 0.12 0.12 0.12 0.13 0.16 0.16 0.16 0.17
0.01 0.02 0.02 0.01 0.01 0.01 0.01 0.02 0.02 0.01 0.01 0.01 0.01 0.01 0.01 0.01 0.03 0.04 0.05 0.06 0.06 0.06 0.06 0.06 0.07 0.07 0.08 0.09 0.10 0.11 0.13 0.17 0.20 0.19 0.20 0.20 0.20 0.19 0.19 0.20 0.19 0.18 0.19 0.22
0.01 0.02 0.03 0.04 0.03 0.02 0.02 0.02 0.02 0.02 0.03 0.02 0.03 0.02 0.02 0.02 0.02 0.03 0.04 0.04 0.05 0.06 0.05 0.06 0.06 0.07 0.08 0.09 0.10 0.11 0.12 0.14 0.18 0.20 0.22 0.24 0.24 0.24 0.23 0.22 0.20 0.18 0.19 0.23
0.04 0.03 0.03 0.04 0.06 0.06 0.05 0.04 0.04 0.04 0.04 0.03 0.04 0.04 0.04 0.03 0.03 0.03 0.03 0.03 0.05 0.05 0.06 0.07 0.08 0.08 0.09 0.10 0.12 0.13 0.13 0.18 0.20 0.20 0.21 0.24 0.25 0.24 0.23 0.22 0.21 0.19 0.18 0.18
0.11 0.09 0.09 0.10 0.08 0.09 0.08 0.07 0.06 0.05 0.05 0.05 0.05 0.04 0.04 0.04 0.03 0.03 0.04 0.04 0.04 0.05 0.06 0.08 0.09 0.10 0.10 0.11 0.13 0.14 0.16 0.19 0.24 0.22 0.20 0.22 0.24 0.25 0.24 0.23 0.22 0.20 0.17 0.21
0.13 0.14 0.14 0.17 0.17 0.15 0.13 0.11 0.09 0.08 0.07 0.07 0.07 0.06 0.05 0.05 0.05 0.05 0.05 0.05 0.05 0.06 0.07 0.08 0.09 0.10 0.10 0.11 0.15 0.17 0.18 0.19 0.21 0.22 0.22 0.24 0.27 0.27 0.28 0.27 0.25 0.24 0.23 0.26
0.13 0.13 0.13 0.15 0.18 0.18 0.17 0.15 0.14 0.13 0.11 0.10 0.09 0.08 0.08 0.07 0.07 0.06 0.06 0.07 0.07 0.08 0.07 0.08 0.11 0.11 0.11 0.12 0.18 0.18 0.19 0.20 0.21 0.23 0.25 0.30 0.32 0.29 0.29 0.29 0.29 0.29 0.29 0.30
0.15 0.15 0.15 0.17 0.19 0.19 0.19 0.18 0.17 0.17 0.16 0.15 0.13 0.12 0.10 0.10 0.10 0.09 0.09 0.09 0.09 0.11 0.11 0.12 0.13 0.12 0.12 0.14 0.19 0.19 0.20 0.21 0.23 0.24 0.26 0.28 0.30 0.29 0.28 0.28 0.29 0.30 0.31 0.30
0.19 0.17 0.16 0.17 0.19 0.20 0.19 0.19 0.19 0.20 0.20 0.18 0.17 0.16 0.14 0.13 0.14 0.14 0.13 0.12 0.10 0.11 0.12 0.14 0.13 0.14 0.17 0.21 0.24 0.22 0.22 0.24 0.24 0.26 0.27 0.28 0.28 0.28 0.27 0.28 0.28 0.29 0.29 0.29
0.18 0.18 0.17 0.17 0.19 0.22 0.21 0.20 0.19 0.20 0.19 0.18 0.18 0.17 0.16 0.15 0.14 0.13 0.13 0.14 0.13 0.15 0.16 0.14 0.15 0.20 0.26 0.28 0.24 0.23 0.24 0.26 0.28 0.29 0.28 0.27 0.27 0.26 0.26 0.27 0.28 0.27 0.27 0.28
0.16 0.17 0.16 0.15 0.15 0.15 0.15 0.15 0.16 0.17 0.18 0.18 0.19 0.18 0.18 0.16 0.16 0.16 0.16 0.14 0.14 0.16 0.18 0.17 0.21 0.27 0.29 0.27 0.25 0.27 0.29 0.30 0.30 0.30 0.29 0.29 0.28 0.28 0.28 0.27 0.27 0.27 0.26 0.25
0.10 0.10 0.11 0.10 0.10 0.11 0.12 0.13 0.13 0.14 0.15 0.15 0.15 0.15 0.15 0.14 0.13 0.12 0.13 0.14 0.16 0.19 0.19 0.20 0.24 0.26 0.26 0.25 0.26 0.30 0.31 0.32 0.31 0.31 0.30 0.29 0.28 0.28 0.27 0.26 0.25 0.24 0.23 0.23
0.08 0.07 0.06 0.07 0.07 0.07 0.07 0.08 0.09 0.10 0.12 0.12 0.12 0.12 0.12 0.12 0.14 0.13 0.12 0.12 0.14 0.17 0.17 0.19 0.21 0.22 0.23 0.23 0.26 0.28 0.29 0.30 0.31 0.31 0.29 0.28 0.27 0.26 0.25 0.24 0.25 0.24 0.22 0.22
0.06 0.06 0.05 0.05 0.05 0.05 0.06 0.06 0.06 0.06 0.08 0.10 0.11 0.11 0.12 0.13 0.13 0.13 0.13 0.13 0.14 0.16 0.17 0.17 0.17 0.19 0.21 0.22 0.23 0.24 0.24 0.24 0.25 0.24 0.24 0.25 0.25 0.23 0.22 0.22 0.22 0.22 0.21 0.21
0.04 0.04 0.04 0.04 0.04 0.04 0.04 0.05 0.05 0.06 0.06 0.07 0.09 0.10 0.12 0.12 0.12 0.12 0.12 0.13 0.14 0.15 0.15 0.15 0.16 0.17 0.18 0.19 0.20 0.19 0.19 0.19 0.19 0.19 0.20 0.20 0.20 0.19 0.19 0.19 0.20 0.20 0.20 0.20